Location: Amon Carter Post Office
(32.8281°N, 97.0484°W)
Time: 05:00:28
(UTC+00:00)

H-2A R/B - Pass Details

Date: 08 July 2022
Orbit: 577 x 651 km, 98.5° (Epoch: 07 August)

Event Time Altitude Azimuth Distance (km) Brightness Sun altitude
Rises 02:51:49 0° 9° (N) 2,957 6.0 -13.5°
Reaches altitude 10° 02:54:02 10° 7° (N) 2,050 5.2 -13.9°
Maximum altitude 02:58:29 70° 285° (WNW) 694 2.5 -14.6°
Drops below altitude 10° 03:02:56 10° 202° (SSW) 2,049 4.5 -15.3°
Sets 03:05:09 0° 200° (SSW) 2,954 5.3 -15.7°
